User: anonymous   Login
Location: Unspecified
(0.0000°N, 0.0000°E)
Time: 23:31:37
(UTC+00:00)
Language:

USA 110 - Orbit

View from above orbital plane
View from above orbital plane
View from above satellite
View from above satellite

Ground track
Ground track

The orbit data is extracted from the following two-line orbital elements,

1 23567U 95022A   18118.14940877 0.00000000  00000-0  00000-0 0    03
2 23567  14.1846  35.6292 0064642 102.7344 258.0068  1.00270000    08
Epoch (UTC): 28 April 2018 03:35:08
Eccentricity: 0.0064642
inclination: 14.1846°
perigee height: 35514 km
apogee height: 36059 km
right ascension of ascending node: 35.6292°
argument of perigee: 102.7344°
revolutions per day: 1.00270000
mean anomaly at epoch: 258.0068°
orbit number at epoch: 0

The dashed part of the orbit path shows where the satellite is in the earth's shadow,  

DLR